owner,sensor,date,latitude,longitude,vertical_datum,sea_water_temperature,qcFlag 
WAVCIS,ioos:station:WAVCIS:CSI15:1,2011-04-01T00:00:00Z,28.8332,-90.8320,10.0,30.19,11111222 
WAVCIS,ioos:station:WAVCIS:CSI15:1,2011-04-01T01:00:00Z,28.8332,-90.8320,10.0,30.42,11111222 
WAVCIS,ioos:station:WAVCIS:CSI15:1,2011-04-01T02:00:00Z,28.8332,-90.8320,10.0,30.67,11111222 
WAVCIS,ioos:station:WAVCIS:CSI15:1,2011-04-01T03:00:00Z,28.8332,-90.8320,10.0,31.19,11111222 
WAVCIS,ioos:station:WAVCIS:CSI15:1,2011-04-01T04:00:00Z,28.8332,-90.8320,10.0,31.79,11111222 
WAVCIS,ioos:station:WAVCIS:CSI15:1,2011-04-01T05:00:00Z,28.8332,-90.8320,10.0,31.83,11111222 
WAVCIS,ioos:station:WAVCIS:CSI15:1,2011-04-01T06:00:00Z,28.8332,-90.8320,10.0,32.23,11111222 
WAVCIS,ioos:station:WAVCIS:CSI15:1,2011-04-01T07:00:00Z,28.8332,-90.8320,10.0,32.6,11111222 
WAVCIS,ioos:station:WAVCIS:CSI15:1,2011-04-01T08:00:00Z,28.8332,-90.8320,10.0,32.95,11111222 
WAVCIS,ioos:station:WAVCIS:CSI15:1,2011-04-01T09:00:00Z,28.8332,-90.8320,10.0,33.14,11111222 
WAVCIS,ioos:station:WAVCIS:CSI15:1,2011-04-01T10:00:00Z,28.8332,-90.8320,10.0,32.94,11111222 
WAVCIS,ioos:station:WAVCIS:CSI15:1,2011-04-01T11:00:00Z,28.8332,-90.8320,10.0,33.04,11111222 
WAVCIS,ioos:station:WAVCIS:CSI15:1,2011-04-01T12:00:00Z,28.8332,-90.8320,10.0,32.28,11111222 
WAVCIS,ioos:station:WAVCIS:CSI15:1,2011-04-01T13:00:00Z,28.8332,-90.8320,10.0,32.49,11111222 
WAVCIS,ioos:station:WAVCIS:CSI15:1,2011-04-01T14:00:00Z,28.8332,-90.8320,10.0,31.09,11111222 
WAVCIS,ioos:station:WAVCIS:CSI15:1,2011-04-01T15:00:00Z,28.8332,-90.8320,10.0,31.78,11111222 
WAVCIS,ioos:station:WAVCIS:CSI15:1,2011-04-01T16:00:00Z,28.8332,-90.8320,10.0,32.52,11111222 
WAVCIS,ioos:station:WAVCIS:CSI15:1,2011-04-01T17:00:00Z,28.8332,-90.8320,10.0,32.79,11111222 
WAVCIS,ioos:station:WAVCIS:CSI15:1,2011-04-01T18:00:00Z,28.8332,-90.8320,10.0,32.83,11111222 
WAVCIS,ioos:station:WAVCIS:CSI15:1,2011-04-01T19:00:00Z,28.8332,-90.8320,10.0,33.08,11111222 
WAVCIS,ioos:station:WAVCIS:CSI15:1,2011-04-01T20:00:00Z,28.8332,-90.8320,10.0,33.12,11111222 
WAVCIS,ioos:station:WAVCIS:CSI15:1,2011-04-01T21:00:00Z,28.8332,-90.8320,10.0,33.31,11111222 
WAVCIS,ioos:station:WAVCIS:CSI15:1,2011-04-01T22:00:00Z,28.8332,-90.8320,10.0,32.82,11111222 
WAVCIS,ioos:station:WAVCIS:CSI15:1,2011-04-01T23:00:00Z,28.8332,-90.8320,10.0,32.55,11111222 
WAVCIS,ioos:station:WAVCIS:CSI15:1,2011-04-02T00:00:00Z,28.8332,-90.8320,10.0,33.0,11111222 
WAVCIS,ioos:station:WAVCIS:CSI15:1,2011-04-02T01:00:00Z,28.8332,-90.8320,10.0,33.09,11111222 
WAVCIS,ioos:station:WAVCIS:CSI15:1,2011-04-02T02:00:00Z,28.8332,-90.8320,10.0,32.8,11111222 
WAVCIS,ioos:station:WAVCIS:CSI15:1,2011-04-02T03:00:00Z,28.8332,-90.8320,10.0,31.54,11111222 
WAVCIS,ioos:station:WAVCIS:CSI15:1,2011-04-02T04:00:00Z,28.8332,-90.8320,10.0,31.43,11111222 
WAVCIS,ioos:station:WAVCIS:CSI15:1,2011-04-02T05:00:00Z,28.8332,-90.8320,10.0,31.98,11111222 
WAVCIS,ioos:station:WAVCIS:CSI15:1,2011-04-02T06:00:00Z,28.8332,-90.8320,10.0,32.11,11111222 
WAVCIS,ioos:station:WAVCIS:CSI15:1,2011-04-02T07:00:00Z,28.8332,-90.8320,10.0,32.57,11111222 
WAVCIS,ioos:station:WAVCIS:CSI15:1,2011-04-02T08:00:00Z,28.8332,-90.8320,10.0,30.75,11111222 
WAVCIS,ioos:station:WAVCIS:CSI15:1,2011-04-02T09:00:00Z,28.8332,-90.8320,10.0,31.19,11111222 
WAVCIS,ioos:station:WAVCIS:CSI15:1,2011-04-02T10:00:00Z,28.8332,-90.8320,10.0,31.91,11111222 
WAVCIS,ioos:station:WAVCIS:CSI15:1,2011-04-02T11:00:00Z,28.8332,-90.8320,10.0,32.82,11111222 
WAVCIS,ioos:station:WAVCIS:CSI15:1,2011-04-02T12:00:00Z,28.8332,-90.8320,10.0,33.05,11111222 
WAVCIS,ioos:station:WAVCIS:CSI15:1,2011-04-02T13:00:00Z,28.8332,-90.8320,10.0,33.12,11111222 
WAVCIS,ioos:station:WAVCIS:CSI15:1,2011-04-02T14:00:00Z,28.8332,-90.8320,10.0,32.74,11111222 
WAVCIS,ioos:station:WAVCIS:CSI15:1,2011-04-02T15:00:00Z,28.8332,-90.8320,10.0,33.1,11111222 
WAVCIS,ioos:station:WAVCIS:CSI15:1,2011-04-02T16:00:00Z,28.8332,-90.8320,10.0,32.27,11111222 
WAVCIS,ioos:station:WAVCIS:CSI15:1,2011-04-02T17:00:00Z,28.8332,-90.8320,10.0,32.37,11111222 
WAVCIS,ioos:station:WAVCIS:CSI15:1,2011-04-02T18:00:00Z,28.8332,-90.8320,10.0,32.61,11111222 
WAVCIS,ioos:station:WAVCIS:CSI15:1,2011-04-02T19:00:00Z,28.8332,-90.8320,10.0,32.9,11111222 
WAVCIS,ioos:station:WAVCIS:CSI15:1,2011-04-02T20:00:00Z,28.8332,-90.8320,10.0,33.07,11111222 
WAVCIS,ioos:station:WAVCIS:CSI15:1,2011-04-02T21:00:00Z,28.8332,-90.8320,10.0,33.13,11111222 
WAVCIS,ioos:station:WAVCIS:CSI15:1,2011-04-02T22:00:00Z,28.8332,-90.8320,10.0,32.92,11111222 
WAVCIS,ioos:station:WAVCIS:CSI15:1,2011-04-02T23:00:00Z,28.8332,-90.8320,10.0,32.97,11111222 
WAVCIS,ioos:station:WAVCIS:CSI15:1,2011-04-03T00:00:00Z,28.8332,-90.8320,10.0,32.98,11111222 
WAVCIS,ioos:station:WAVCIS:CSI15:1,2011-04-03T01:00:00Z,28.8332,-90.8320,10.0,32.78,11111222 
WAVCIS,ioos:station:WAVCIS:CSI15:1,2011-04-03T02:00:00Z,28.8332,-90.8320,10.0,32.62,11111222 
WAVCIS,ioos:station:WAVCIS:CSI15:1,2011-04-03T03:00:00Z,28.8332,-90.8320,10.0,32.66,11111222 
WAVCIS,ioos:station:WAVCIS:CSI15:1,2011-04-03T04:00:00Z,28.8332,-90.8320,10.0,32.73,11111222 
WAVCIS,ioos:station:WAVCIS:CSI15:1,2011-04-03T05:00:00Z,28.8332,-90.8320,10.0,32.67,11111222 
WAVCIS,ioos:station:WAVCIS:CSI15:1,2011-04-03T06:00:00Z,28.8332,-90.8320,10.0,32.92,11111222 
WAVCIS,ioos:station:WAVCIS:CSI15:1,2011-04-03T07:00:00Z,28.8332,-90.8320,10.0,32.71,11111222 
WAVCIS,ioos:station:WAVCIS:CSI15:1,2011-04-03T08:00:00Z,28.8332,-90.8320,10.0,32.43,11111222 
WAVCIS,ioos:station:WAVCIS:CSI15:1,2011-04-03T09:00:00Z,28.8332,-90.8320,10.0,31.53,11111222 
WAVCIS,ioos:station:WAVCIS:CSI15:1,2011-04-03T10:00:00Z,28.8332,-90.8320,10.0,31.67,11111222 
WAVCIS,ioos:station:WAVCIS:CSI15:1,2011-04-03T11:00:00Z,28.8332,-90.8320,10.0,31.84,11111222 
WAVCIS,ioos:station:WAVCIS:CSI15:1,2011-04-03T12:00:00Z,28.8332,-90.8320,10.0,31.81,11111222 
WAVCIS,ioos:station:WAVCIS:CSI15:1,2011-04-03T13:00:00Z,28.8332,-90.8320,10.0,32.56,11111222 
WAVCIS,ioos:station:WAVCIS:CSI15:1,2011-04-03T14:00:00Z,28.8332,-90.8320,10.0,33.03,11111222 
WAVCIS,ioos:station:WAVCIS:CSI15:1,2011-04-03T15:00:00Z,28.8332,-90.8320,10.0,33.3,11111222 
WAVCIS,ioos:station:WAVCIS:CSI15:1,2011-04-03T16:00:00Z,28.8332,-90.8320,10.0,33.47,11111222 
WAVCIS,ioos:station:WAVCIS:CSI15:1,2011-04-03T17:00:00Z,28.8332,-90.8320,10.0,33.59,11111222 
WAVCIS,ioos:station:WAVCIS:CSI15:1,2011-04-03T18:00:00Z,28.8332,-90.8320,10.0,33.57,11111222 
WAVCIS,ioos:station:WAVCIS:CSI15:1,2011-04-03T19:00:00Z,28.8332,-90.8320,10.0,33.39,11111222 
WAVCIS,ioos:station:WAVCIS:CSI15:1,2011-04-03T20:00:00Z,28.8332,-90.8320,10.0,33.63,11111222 
WAVCIS,ioos:station:WAVCIS:CSI15:1,2011-04-03T21:00:00Z,28.8332,-90.8320,10.0,32.79,11111222 
WAVCIS,ioos:station:WAVCIS:CSI15:1,2011-04-03T22:00:00Z,28.8332,-90.8320,10.0,32.87,11111222 
WAVCIS,ioos:station:WAVCIS:CSI15:1,2011-04-03T23:00:00Z,28.8332,-90.8320,10.0,32.75,11111222 
WAVCIS,ioos:station:WAVCIS:CSI15:1,2011-04-04T00:00:00Z,28.8332,-90.8320,10.0,33.7,11111222 
WAVCIS,ioos:station:WAVCIS:CSI15:1,2011-04-04T01:00:00Z,28.8332,-90.8320,10.0,33.8,11111222 
WAVCIS,ioos:station:WAVCIS:CSI15:1,2011-04-04T02:00:00Z,28.8332,-90.8320,10.0,33.78,11111222 
WAVCIS,ioos:station:WAVCIS:CSI15:1,2011-04-04T03:00:00Z,28.8332,-90.8320,10.0,33.82,11111222 
WAVCIS,ioos:station:WAVCIS:CSI15:1,2011-04-04T04:00:00Z,28.8332,-90.8320,10.0,33.54,11111222 
WAVCIS,ioos:station:WAVCIS:CSI15:1,2011-04-04T05:00:00Z,28.8332,-90.8320,10.0,33.27,11111222 
WAVCIS,ioos:station:WAVCIS:CSI15:1,2011-04-04T06:00:00Z,28.8332,-90.8320,10.0,33.19,11111222 
WAVCIS,ioos:station:WAVCIS:CSI15:1,2011-04-04T07:00:00Z,28.8332,-90.8320,10.0,33.19,11111222 
WAVCIS,ioos:station:WAVCIS:CSI15:1,2011-04-04T08:00:00Z,28.8332,-90.8320,10.0,33.05,11111222 
WAVCIS,ioos:station:WAVCIS:CSI15:1,2011-04-04T09:00:00Z,28.8332,-90.8320,10.0,31.19,11111222 
WAVCIS,ioos:station:WAVCIS:CSI15:1,2011-04-04T10:00:00Z,28.8332,-90.8320,10.0,30.77,11111222 
WAVCIS,ioos:station:WAVCIS:CSI15:1,2011-04-04T11:00:00Z,28.8332,-90.8320,10.0,30.41,11111222 
WAVCIS,ioos:station:WAVCIS:CSI15:1,2011-04-04T12:00:00Z,28.8332,-90.8320,10.0,30.96,11111222 
WAVCIS,ioos:station:WAVCIS:CSI15:1,2011-04-04T13:00:00Z,28.8332,-90.8320,10.0,31.34,11111222 
WAVCIS,ioos:station:WAVCIS:CSI15:1,2011-04-04T14:00:00Z,28.8332,-90.8320,10.0,31.92,11111222 
WAVCIS,ioos:station:WAVCIS:CSI15:1,2011-04-04T15:00:00Z,28.8332,-90.8320,10.0,31.9,11111222 
WAVCIS,ioos:station:WAVCIS:CSI15:1,2011-04-04T16:00:00Z,28.8332,-90.8320,10.0,32.22,11111222 
WAVCIS,ioos:station:WAVCIS:CSI15:1,2011-04-04T17:00:00Z,28.8332,-90.8320,10.0,32.02,11111222 
WAVCIS,ioos:station:WAVCIS:CSI15:1,2011-04-04T18:00:00Z,28.8332,-90.8320,10.0,32.15,11111222 
WAVCIS,ioos:station:WAVCIS:CSI15:1,2011-04-04T19:00:00Z,28.8332,-90.8320,10.0,32.19,11111222 
WAVCIS,ioos:station:WAVCIS:CSI15:1,2011-04-04T20:00:00Z,28.8332,-90.8320,10.0,32.05,11111222 
WAVCIS,ioos:station:WAVCIS:CSI15:1,2011-04-04T21:00:00Z,28.8332,-90.8320,10.0,32.38,11111222 
WAVCIS,ioos:station:WAVCIS:CSI15:1,2011-04-04T22:00:00Z,28.8332,-90.8320,10.0,32.19,11111222 
WAVCIS,ioos:station:WAVCIS:CSI15:1,2011-04-04T23:00:00Z,28.8332,-90.8320,10.0,32.9,11111222 
WAVCIS,ioos:station:WAVCIS:CSI15:1,2011-04-05T00:00:00Z,28.8332,-90.8320,10.0,33.09,11111222 
WAVCIS,ioos:station:WAVCIS:CSI15:1,2011-04-05T01:00:00Z,28.8332,-90.8320,10.0,33.1,11111222 
WAVCIS,ioos:station:WAVCIS:CSI15:1,2011-04-05T02:00:00Z,28.8332,-90.8320,10.0,32.9,11111222 
WAVCIS,ioos:station:WAVCIS:CSI15:1,2011-04-05T03:00:00Z,28.8332,-90.8320,10.0,31.63,11111222 
WAVCIS,ioos:station:WAVCIS:CSI15:1,2011-04-05T04:00:00Z,28.8332,-90.8320,10.0,31.29,11111222 
WAVCIS,ioos:station:WAVCIS:CSI15:1,2011-04-05T05:00:00Z,28.8332,-90.8320,10.0,30.67,11111222 
WAVCIS,ioos:station:WAVCIS:CSI15:1,2011-04-05T06:00:00Z,28.8332,-90.8320,10.0,30.54,11111222 
WAVCIS,ioos:station:WAVCIS:CSI15:1,2011-04-05T07:00:00Z,28.8332,-90.8320,10.0,30.12,11111222 
WAVCIS,ioos:station:WAVCIS:CSI15:1,2011-04-05T08:00:00Z,28.8332,-90.8320,10.0,30.3,11111222 
WAVCIS,ioos:station:WAVCIS:CSI15:1,2011-04-05T09:00:00Z,28.8332,-90.8320,10.0,30.09,11111222 
WAVCIS,ioos:station:WAVCIS:CSI15:1,2011-04-05T10:00:00Z,28.8332,-90.8320,10.0,30.02,11111222 
WAVCIS,ioos:station:WAVCIS:CSI15:1,2011-04-05T11:00:00Z,28.8332,-90.8320,10.0,30.0,11111222 
WAVCIS,ioos:station:WAVCIS:CSI15:1,2011-04-05T12:00:00Z,28.8332,-90.8320,10.0,30.14,11111222 
WAVCIS,ioos:station:WAVCIS:CSI15:1,2011-04-05T13:00:00Z,28.8332,-90.8320,10.0,30.13,11111222 
WAVCIS,ioos:station:WAVCIS:CSI15:1,2011-04-05T14:00:00Z,28.8332,-90.8320,10.0,30.2,11111222 
WAVCIS,ioos:station:WAVCIS:CSI15:1,2011-04-05T15:00:00Z,28.8332,-90.8320,10.0,30.2,11111222 
WAVCIS,ioos:station:WAVCIS:CSI15:1,2011-04-05T16:00:00Z,28.8332,-90.8320,10.0,30.28,11111222 
WAVCIS,ioos:station:WAVCIS:CSI15:1,2011-04-05T17:00:00Z,28.8332,-90.8320,10.0,30.08,11111222 
WAVCIS,ioos:station:WAVCIS:CSI15:1,2011-04-05T18:00:00Z,28.8332,-90.8320,10.0,30.24,11111222 
WAVCIS,ioos:station:WAVCIS:CSI15:1,2011-04-05T19:00:00Z,28.8332,-90.8320,10.0,30.58,11111222 
WAVCIS,ioos:station:WAVCIS:CSI15:1,2011-04-05T20:00:00Z,28.8332,-90.8320,10.0,31.04,11111222 
WAVCIS,ioos:station:WAVCIS:CSI15:1,2011-04-05T21:00:00Z,28.8332,-90.8320,10.0,31.48,11111222 
WAVCIS,ioos:station:WAVCIS:CSI15:1,2011-04-05T22:00:00Z,28.8332,-90.8320,10.0,31.9,11111222 
WAVCIS,ioos:station:WAVCIS:CSI15:1,2011-04-05T23:00:00Z,28.8332,-90.8320,10.0,32.4,11111222 
WAVCIS,ioos:station:WAVCIS:CSI15:1,2011-04-06T00:00:00Z,28.8332,-90.8320,10.0,32.53,11111222 
WAVCIS,ioos:station:WAVCIS:CSI15:1,2011-04-06T01:00:00Z,28.8332,-90.8320,10.0,32.67,11111222 
WAVCIS,ioos:station:WAVCIS:CSI15:1,2011-04-06T02:00:00Z,28.8332,-90.8320,10.0,32.9,11111222 
WAVCIS,ioos:station:WAVCIS:CSI15:1,2011-04-06T03:00:00Z,28.8332,-90.8320,10.0,32.89,11111222 
WAVCIS,ioos:station:WAVCIS:CSI15:1,2011-04-06T04:00:00Z,28.8332,-90.8320,10.0,32.99,11111222 
WAVCIS,ioos:station:WAVCIS:CSI15:1,2011-04-06T05:00:00Z,28.8332,-90.8320,10.0,33.06,11111222 
WAVCIS,ioos:station:WAVCIS:CSI15:1,2011-04-06T06:00:00Z,28.8332,-90.8320,10.0,33.14,11111222 
WAVCIS,ioos:station:WAVCIS:CSI15:1,2011-04-06T07:00:00Z,28.8332,-90.8320,10.0,33.22,11111222 
WAVCIS,ioos:station:WAVCIS:CSI15:1,2011-04-06T08:00:00Z,28.8332,-90.8320,10.0,33.01,11111222 
WAVCIS,ioos:station:WAVCIS:CSI15:1,2011-04-06T09:00:00Z,28.8332,-90.8320,10.0,33.06,11111222 
WAVCIS,ioos:station:WAVCIS:CSI15:1,2011-04-06T10:00:00Z,28.8332,-90.8320,10.0,33.06,11111222 
WAVCIS,ioos:station:WAVCIS:CSI15:1,2011-04-06T11:00:00Z,28.8332,-90.8320,10.0,32.97,11111222 
WAVCIS,ioos:station:WAVCIS:CSI15:1,2011-04-06T12:00:00Z,28.8332,-90.8320,10.0,32.93,11111222 
WAVCIS,ioos:station:WAVCIS:CSI15:1,2011-04-06T13:00:00Z,28.8332,-90.8320,10.0,32.84,11111222 
WAVCIS,ioos:station:WAVCIS:CSI15:1,2011-04-06T14:00:00Z,28.8332,-90.8320,10.0,32.94,11111222 
WAVCIS,ioos:station:WAVCIS:CSI15:1,2011-04-06T15:00:00Z,28.8332,-90.8320,10.0,32.98,11111222 
WAVCIS,ioos:station:WAVCIS:CSI15:1,2011-04-06T16:00:00Z,28.8332,-90.8320,10.0,33.04,11111222 
WAVCIS,ioos:station:WAVCIS:CSI15:1,2011-04-06T17:00:00Z,28.8332,-90.8320,10.0,33.03,11111222 
WAVCIS,ioos:station:WAVCIS:CSI15:1,2011-04-06T18:00:00Z,28.8332,-90.8320,10.0,33.1,11111222 
WAVCIS,ioos:station:WAVCIS:CSI15:1,2011-04-06T19:00:00Z,28.8332,-90.8320,10.0,33.29,11111222 
WAVCIS,ioos:station:WAVCIS:CSI15:1,2011-04-06T20:00:00Z,28.8332,-90.8320,10.0,33.42,11111222 
WAVCIS,ioos:station:WAVCIS:CSI15:1,2011-04-06T21:00:00Z,28.8332,-90.8320,10.0,33.45,11111222 
WAVCIS,ioos:station:WAVCIS:CSI15:1,2011-04-06T22:00:00Z,28.8332,-90.8320,10.0,33.56,11111222 
WAVCIS,ioos:station:WAVCIS:CSI15:1,2011-04-06T23:00:00Z,28.8332,-90.8320,10.0,33.56,11111222 
WAVCIS,ioos:station:WAVCIS:CSI15:1,2011-04-07T00:00:00Z,28.8332,-90.8320,10.0,33.59,11111222 
WAVCIS,ioos:station:WAVCIS:CSI15:1,2011-04-07T01:00:00Z,28.8332,-90.8320,10.0,33.54,11111222 
WAVCIS,ioos:station:WAVCIS:CSI15:1,2011-04-07T02:00:00Z,28.8332,-90.8320,10.0,33.34,11111222 
WAVCIS,ioos:station:WAVCIS:CSI15:1,2011-04-07T03:00:00Z,28.8332,-90.8320,10.0,33.23,11111222 
WAVCIS,ioos:station:WAVCIS:CSI15:1,2011-04-07T04:00:00Z,28.8332,-90.8320,10.0,33.28,11111222 
WAVCIS,ioos:station:WAVCIS:CSI15:1,2011-04-07T05:00:00Z,28.8332,-90.8320,10.0,33.08,11111222 
WAVCIS,ioos:station:WAVCIS:CSI15:1,2011-04-07T06:00:00Z,28.8332,-90.8320,10.0,32.79,11111222 
WAVCIS,ioos:station:WAVCIS:CSI15:1,2011-04-07T07:00:00Z,28.8332,-90.8320,10.0,32.83,11111222 
WAVCIS,ioos:station:WAVCIS:CSI15:1,2011-04-07T08:00:00Z,28.8332,-90.8320,10.0,32.94,11111222 
WAVCIS,ioos:station:WAVCIS:CSI15:1,2011-04-07T09:00:00Z,28.8332,-90.8320,10.0,33.17,11111222 
WAVCIS,ioos:station:WAVCIS:CSI15:1,2011-04-07T10:00:00Z,28.8332,-90.8320,10.0,33.31,11111222 
WAVCIS,ioos:station:WAVCIS:CSI15:1,2011-04-07T11:00:00Z,28.8332,-90.8320,10.0,33.4,11111222 
WAVCIS,ioos:station:WAVCIS:CSI15:1,2011-04-07T12:00:00Z,28.8332,-90.8320,10.0,33.33,11111222 
WAVCIS,ioos:station:WAVCIS:CSI15:1,2011-04-07T13:00:00Z,28.8332,-90.8320,10.0,33.36,11111222 
WAVCIS,ioos:station:WAVCIS:CSI15:1,2011-04-07T14:00:00Z,28.8332,-90.8320,10.0,33.44,11111222 
WAVCIS,ioos:station:WAVCIS:CSI15:1,2011-04-07T15:00:00Z,28.8332,-90.8320,10.0,33.57,11111222 
WAVCIS,ioos:station:WAVCIS:CSI15:1,2011-04-07T16:00:00Z,28.8332,-90.8320,10.0,33.58,11111222 
WAVCIS,ioos:station:WAVCIS:CSI15:1,2011-04-07T17:00:00Z,28.8332,-90.8320,10.0,33.63,11111222 
WAVCIS,ioos:station:WAVCIS:CSI15:1,2011-04-07T18:00:00Z,28.8332,-90.8320,10.0,33.67,11111222 
WAVCIS,ioos:station:WAVCIS:CSI15:1,2011-04-07T19:00:00Z,28.8332,-90.8320,10.0,33.84,11111222 
WAVCIS,ioos:station:WAVCIS:CSI15:1,2011-04-07T20:00:00Z,28.8332,-90.8320,10.0,33.87,11111222 
WAVCIS,ioos:station:WAVCIS:CSI15:1,2011-04-07T21:00:00Z,28.8332,-90.8320,10.0,33.86,11111222 
WAVCIS,ioos:station:WAVCIS:CSI15:1,2011-04-07T22:00:00Z,28.8332,-90.8320,10.0,33.81,11111222 
WAVCIS,ioos:station:WAVCIS:CSI15:1,2011-04-07T23:00:00Z,28.8332,-90.8320,10.0,33.88,11111222 
WAVCIS,ioos:station:WAVCIS:CSI15:1,2011-04-08T00:00:00Z,28.8332,-90.8320,10.0,33.81,11111222 
WAVCIS,ioos:station:WAVCIS:CSI15:1,2011-04-08T01:00:00Z,28.8332,-90.8320,10.0,33.95,11111222 
WAVCIS,ioos:station:WAVCIS:CSI15:1,2011-04-08T02:00:00Z,28.8332,-90.8320,10.0,33.73,11111222 
WAVCIS,ioos:station:WAVCIS:CSI15:1,2011-04-08T03:00:00Z,28.8332,-90.8320,10.0,33.82,11111222 
WAVCIS,ioos:station:WAVCIS:CSI15:1,2011-04-08T04:00:00Z,28.8332,-90.8320,10.0,33.73,11111222 
WAVCIS,ioos:station:WAVCIS:CSI15:1,2011-04-08T05:00:00Z,28.8332,-90.8320,10.0,33.57,11111222 
WAVCIS,ioos:station:WAVCIS:CSI15:1,2011-04-08T06:00:00Z,28.8332,-90.8320,10.0,33.43,11111222 
WAVCIS,ioos:station:WAVCIS:CSI15:1,2011-04-08T07:00:00Z,28.8332,-90.8320,10.0,33.44,11111222 
WAVCIS,ioos:station:WAVCIS:CSI15:1,2011-04-08T08:00:00Z,28.8332,-90.8320,10.0,33.46,11111222 
WAVCIS,ioos:station:WAVCIS:CSI15:1,2011-04-08T09:00:00Z,28.8332,-90.8320,10.0,33.38,11111222 
WAVCIS,ioos:station:WAVCIS:CSI15:1,2011-04-08T10:00:00Z,28.8332,-90.8320,10.0,33.37,11111222 
WAVCIS,ioos:station:WAVCIS:CSI15:1,2011-04-08T11:00:00Z,28.8332,-90.8320,10.0,33.37,11111222 
WAVCIS,ioos:station:WAVCIS:CSI15:1,2011-04-08T12:00:00Z,28.8332,-90.8320,10.0,33.4,11111222 
WAVCIS,ioos:station:WAVCIS:CSI15:1,2011-04-08T13:00:00Z,28.8332,-90.8320,10.0,33.4,11111222 
WAVCIS,ioos:station:WAVCIS:CSI15:1,2011-04-08T14:00:00Z,28.8332,-90.8320,10.0,33.56,11111222 
WAVCIS,ioos:station:WAVCIS:CSI15:1,2011-04-08T15:00:00Z,28.8332,-90.8320,10.0,33.72,11111222 
WAVCIS,ioos:station:WAVCIS:CSI15:1,2011-04-08T16:00:00Z,28.8332,-90.8320,10.0,33.69,11111222 
WAVCIS,ioos:station:WAVCIS:CSI15:1,2011-04-08T17:00:00Z,28.8332,-90.8320,10.0,33.73,11111222 
WAVCIS,ioos:station:WAVCIS:CSI15:1,2011-04-08T18:00:00Z,28.8332,-90.8320,10.0,33.77,11111222 
WAVCIS,ioos:station:WAVCIS:CSI15:1,2011-04-08T19:00:00Z,28.8332,-90.8320,10.0,33.88,11111222 
WAVCIS,ioos:station:WAVCIS:CSI15:1,2011-04-08T20:00:00Z,28.8332,-90.8320,10.0,33.59,11111222 
WAVCIS,ioos:station:WAVCIS:CSI15:1,2011-04-08T21:00:00Z,28.8332,-90.8320,10.0,33.85,11111222 
WAVCIS,ioos:station:WAVCIS:CSI15:1,2011-04-08T22:00:00Z,28.8332,-90.8320,10.0,33.9,11111222 
WAVCIS,ioos:station:WAVCIS:CSI15:1,2011-04-08T23:00:00Z,28.8332,-90.8320,10.0,33.97,11111222 
WAVCIS,ioos:station:WAVCIS:CSI15:1,2011-04-09T00:00:00Z,28.8332,-90.8320,10.0,33.9,11111222 
WAVCIS,ioos:station:WAVCIS:CSI15:1,2011-04-09T01:00:00Z,28.8332,-90.8320,10.0,33.95,11111222 
WAVCIS,ioos:station:WAVCIS:CSI15:1,2011-04-09T02:00:00Z,28.8332,-90.8320,10.0,33.93,11111222 
WAVCIS,ioos:station:WAVCIS:CSI15:1,2011-04-09T03:00:00Z,28.8332,-90.8320,10.0,33.97,11111222 
WAVCIS,ioos:station:WAVCIS:CSI15:1,2011-04-09T04:00:00Z,28.8332,-90.8320,10.0,33.97,11111222 
WAVCIS,ioos:station:WAVCIS:CSI15:1,2011-04-09T05:00:00Z,28.8332,-90.8320,10.0,33.95,11111222 
WAVCIS,ioos:station:WAVCIS:CSI15:1,2011-04-09T06:00:00Z,28.8332,-90.8320,10.0,33.9,11111222 
WAVCIS,ioos:station:WAVCIS:CSI15:1,2011-04-09T07:00:00Z,28.8332,-90.8320,10.0,33.79,11111222 
WAVCIS,ioos:station:WAVCIS:CSI15:1,2011-04-09T08:00:00Z,28.8332,-90.8320,10.0,33.91,11111222 
WAVCIS,ioos:station:WAVCIS:CSI15:1,2011-04-09T09:00:00Z,28.8332,-90.8320,10.0,33.95,11111222 
WAVCIS,ioos:station:WAVCIS:CSI15:1,2011-04-09T10:00:00Z,28.8332,-90.8320,10.0,33.59,11111222 
WAVCIS,ioos:station:WAVCIS:CSI15:1,2011-04-09T11:00:00Z,28.8332,-90.8320,10.0,33.67,11111222 
WAVCIS,ioos:station:WAVCIS:CSI15:1,2011-04-09T12:00:00Z,28.8332,-90.8320,10.0,33.68,11111222 
WAVCIS,ioos:station:WAVCIS:CSI15:1,2011-04-09T13:00:00Z,28.8332,-90.8320,10.0,33.6,11111222 
WAVCIS,ioos:station:WAVCIS:CSI15:1,2011-04-09T14:00:00Z,28.8332,-90.8320,10.0,33.59,11111222 
WAVCIS,ioos:station:WAVCIS:CSI15:1,2011-04-09T15:00:00Z,28.8332,-90.8320,10.0,33.55,11111222 
WAVCIS,ioos:station:WAVCIS:CSI15:1,2011-04-09T16:00:00Z,28.8332,-90.8320,10.0,33.49,11111222 
WAVCIS,ioos:station:WAVCIS:CSI15:1,2011-04-09T17:00:00Z,28.8332,-90.8320,10.0,33.62,11111222 
WAVCIS,ioos:station:WAVCIS:CSI15:1,2011-04-09T18:00:00Z,28.8332,-90.8320,10.0,33.77,11111222 
WAVCIS,ioos:station:WAVCIS:CSI15:1,2011-04-09T19:00:00Z,28.8332,-90.8320,10.0,33.89,11111222 
WAVCIS,ioos:station:WAVCIS:CSI15:1,2011-04-09T20:00:00Z,28.8332,-90.8320,10.0,33.97,11111222 
WAVCIS,ioos:station:WAVCIS:CSI15:1,2011-04-09T21:00:00Z,28.8332,-90.8320,10.0,33.95,11111222 
WAVCIS,ioos:station:WAVCIS:CSI15:1,2011-04-09T22:00:00Z,28.8332,-90.8320,10.0,33.83,11111222 
WAVCIS,ioos:station:WAVCIS:CSI15:1,2011-04-09T23:00:00Z,28.8332,-90.8320,10.0,33.88,11111222 
WAVCIS,ioos:station:WAVCIS:CSI15:1,2011-04-10T00:00:00Z,28.8332,-90.8320,10.0,33.92,11111222 
WAVCIS,ioos:station:WAVCIS:CSI15:1,2011-04-10T01:00:00Z,28.8332,-90.8320,10.0,34.02,11111222 
WAVCIS,ioos:station:WAVCIS:CSI15:1,2011-04-10T02:00:00Z,28.8332,-90.8320,10.0,34.03,11111222 
WAVCIS,ioos:station:WAVCIS:CSI15:1,2011-04-10T03:00:00Z,28.8332,-90.8320,10.0,34.02,11111222 
WAVCIS,ioos:station:WAVCIS:CSI15:1,2011-04-10T04:00:00Z,28.8332,-90.8320,10.0,33.87,11111222 
WAVCIS,ioos:station:WAVCIS:CSI15:1,2011-04-10T05:00:00Z,28.8332,-90.8320,10.0,33.98,11111222 
WAVCIS,ioos:station:WAVCIS:CSI15:1,2011-04-10T06:00:00Z,28.8332,-90.8320,10.0,34.08,11111222 
WAVCIS,ioos:station:WAVCIS:CSI15:1,2011-04-10T07:00:00Z,28.8332,-90.8320,10.0,34.04,11111222 
WAVCIS,ioos:station:WAVCIS:CSI15:1,2011-04-10T08:00:00Z,28.8332,-90.8320,10.0,33.82,11111222 
WAVCIS,ioos:station:WAVCIS:CSI15:1,2011-04-10T09:00:00Z,28.8332,-90.8320,10.0,33.94,11111222 
WAVCIS,ioos:station:WAVCIS:CSI15:1,2011-04-10T10:00:00Z,28.8332,-90.8320,10.0,34.07,11111222 
WAVCIS,ioos:station:WAVCIS:CSI15:1,2011-04-10T11:00:00Z,28.8332,-90.8320,10.0,33.7,11111222 
WAVCIS,ioos:station:WAVCIS:CSI15:1,2011-04-10T12:00:00Z,28.8332,-90.8320,10.0,33.6,11111222 
WAVCIS,ioos:station:WAVCIS:CSI15:1,2011-04-10T13:00:00Z,28.8332,-90.8320,10.0,33.71,11111222 
WAVCIS,ioos:station:WAVCIS:CSI15:1,2011-04-10T14:00:00Z,28.8332,-90.8320,10.0,33.82,11111222 
WAVCIS,ioos:station:WAVCIS:CSI15:1,2011-04-10T15:00:00Z,28.8332,-90.8320,10.0,33.94,11111222 
WAVCIS,ioos:station:WAVCIS:CSI15:1,2011-04-10T16:00:00Z,28.8332,-90.8320,10.0,34.07,11111222 
WAVCIS,ioos:station:WAVCIS:CSI15:1,2011-04-10T17:00:00Z,28.8332,-90.8320,10.0,34.13,11111222 
WAVCIS,ioos:station:WAVCIS:CSI15:1,2011-04-10T18:00:00Z,28.8332,-90.8320,10.0,34.06,11111222 
WAVCIS,ioos:station:WAVCIS:CSI15:1,2011-04-10T19:00:00Z,28.8332,-90.8320,10.0,34.04,11111222 
WAVCIS,ioos:station:WAVCIS:CSI15:1,2011-04-10T20:00:00Z,28.8332,-90.8320,10.0,34.11,11111222 
WAVCIS,ioos:station:WAVCIS:CSI15:1,2011-04-10T21:00:00Z,28.8332,-90.8320,10.0,34.24,11111222 
WAVCIS,ioos:station:WAVCIS:CSI15:1,2011-04-10T22:00:00Z,28.8332,-90.8320,10.0,34.37,11111222 
WAVCIS,ioos:station:WAVCIS:CSI15:1,2011-04-10T23:00:00Z,28.8332,-90.8320,10.0,34.3,11111222 
WAVCIS,ioos:station:WAVCIS:CSI15:1,2011-04-11T00:00:00Z,28.8332,-90.8320,10.0,33.59,11111222 
WAVCIS,ioos:station:WAVCIS:CSI15:1,2011-04-11T01:00:00Z,28.8332,-90.8320,10.0,34.39,11111222 
WAVCIS,ioos:station:WAVCIS:CSI15:1,2011-04-11T02:00:00Z,28.8332,-90.8320,10.0,34.19,11111222 
WAVCIS,ioos:station:WAVCIS:CSI15:1,2011-04-11T03:00:00Z,28.8332,-90.8320,10.0,34.12,11111222 
WAVCIS,ioos:station:WAVCIS:CSI15:1,2011-04-11T04:00:00Z,28.8332,-90.8320,10.0,34.12,11111222 
WAVCIS,ioos:station:WAVCIS:CSI15:1,2011-04-11T05:00:00Z,28.8332,-90.8320,10.0,34.02,11111222 
WAVCIS,ioos:station:WAVCIS:CSI15:1,2011-04-11T06:00:00Z,28.8332,-90.8320,10.0,33.6,11111222 
WAVCIS,ioos:station:WAVCIS:CSI15:1,2011-04-11T07:00:00Z,28.8332,-90.8320,10.0,33.45,11111222 
WAVCIS,ioos:station:WAVCIS:CSI15:1,2011-04-11T08:00:00Z,28.8332,-90.8320,10.0,33.26,11111222 
WAVCIS,ioos:station:WAVCIS:CSI15:1,2011-04-11T09:00:00Z,28.8332,-90.8320,10.0,33.2,11111222 
WAVCIS,ioos:station:WAVCIS:CSI15:1,2011-04-11T10:00:00Z,28.8332,-90.8320,10.0,33.2,11111222 
WAVCIS,ioos:station:WAVCIS:CSI15:1,2011-04-11T11:00:00Z,28.8332,-90.8320,10.0,33.14,11111222 
WAVCIS,ioos:station:WAVCIS:CSI15:1,2011-04-11T12:00:00Z,28.8332,-90.8320,10.0,33.26,11111222 
WAVCIS,ioos:station:WAVCIS:CSI15:1,2011-04-11T13:00:00Z,28.8332,-90.8320,10.0,33.5,11111222 